CAPE
21 19 13 11 5 5 8 4 0 11 8 2 3 8 18 0 0 0 0 0 11 0 0 0 0 1 1 41 1 0 11 0 0 0 0 0 0 0 0 12 47 45 5 0 0
5 5 2 4 7 9 9 5 1 2 6 0 5 6 12 0 0 0 0 0 0 2 0 0 0 1 4 11 28 9 2 0 0 0 0 0 0 0 0 6 82 106 2 0 3
6 0 4 18 23 23 20 15 1 1 0 1 7 12 2 0 0 0 0 0 0 0 0 0 0 0 0 14 33 26 12 0 0 0 0 0 0 0 0 0 14 173 36 52 43
0 7 13 4 10 14 11 28 16 4 6 10 14 13 0 0 0 0 0 0 0 0 0 0 0 0 0 7 10 29 17 15 12 1 0 0 0 0 0 0 0 0 58 24 24
7 4 2 11 23 20 18 8 26 21 17 8 14 14 0 0 0 0 0 0 0 0 0 0 0 0 0 0 4 34 24 24 14 5 12 1 0 0 0 0 0 0 22 50 26
11 0 4 13 20 19 13 12 18 13 18 5 21 13 0 0 0 0 0 0 0 0 0 0 0 0 0 0 0 0 0 1 0 1 5 2 0 3 0 0 0 0 0 40 24
3 1 2 4 6 9 12 10 4 6 9 15 18 4 0 0 0 0 0 0 0 0 0 0 0 0 0 0 0 0 0 0 0 0 0 0 0 0 0 0 0 0 0 0 18
0 0 2 3 1 0 0 0 0 0 0 7 15 2 0 0 0 0 0 0 0 0 0 0 0 0 0 0 0 0 0 0 0 0 0 0 0 0 0 0 0 0 0 0 12
0 0 1 0 0 0 0 0 0 0 0 6 0 0 0 0 0 0 0 0 0 0 0 0 0 0 0 0 0 0 0 0 0 0 0 3 0 0 0 0 0 0 0 0 0
0 0 0 0 0 0 0 0 0 0 0 1 6 6 0 0 0 0 0 0 0 0 0 0 1 0 0 0 0 0 0 0 0 0 0 0 0 0 5 0 0 0 0 0 0
0 0 0 0 0 0 0 0 0 0 0 0 0 0 0 0 0 0 0 0 0 1 2 2 6 2 0 0 0 0 0 0 0 0 0 0 0 0 9 0 0 0 0 0 0
0 0 0 0 0 0 0 0 0 1 1 0 0 0 0 0 0 0 0 1 4 8 6 6 3 0 1 0 0 0 0 0 0 0 0 0 0 0 0 0 0 0 0 0 0
0 0 0 0 0 0 0 0 5 0 1 0 0 0 0 0 0 0 0 0 5 15 15 3 0 0 0 0 0 0 2 0 0 0 0 0 0 0 0 0 0 0 0 0 0
0 0 0 0 0 0 2 0 0 0 0 0 0 1 0 3 2 0 0 0 5 13 12 17 2 0 1 1 0 1 0 0 0 1 0 0 0 0 0 0 0 0 0 0 0
0 0 0 0 0 0 0 0 0 10 0 0 0 0 0 0 0 2 0 1 12 8 1 0 0 2 3 0 0 0 0 0 0 5 10 0 4 0 0 0 0 0 0 0 0
0 0 0 0 0 0 0 0 2 0 0 0 0 0 0 0 0 5 5 0 4 9 5 2 0 0 0 0 0 0 0 3 5 14 20 0 7 0 0 0 0 0 0 0 0
0 0 0 0 0 0 0 0 0 0 0 0 0 0 0 0 0 2 7 13 20 19 3 4 1 1 3 7 0 2 24 19 25 38 6 0 8 0 0 0 0 0 0 0 0
0 0 0 0 0 0 0 0 0 0 0 0 0 0 0 0 0 2 2 28 14 6 23 15 1 0 5 4 4 10 4 7 6 9 3 0 1 0 0 0 0 0 0 0 0
0 0 0 0 0 0 0 0 0 0 0 0 0 0 0 0 0 2 0 5 7 2 28 23 11 0 0 0 6 27 14 2 9 4 11 1 0 0 2 0 0 0 0 0 0
0 0 0 0 0 0 0 0 0 0 0 0 0 0 2 1 4 4 0 16 20 7 10 9 21 5 7 5 13 19 1 11 21 0 0 1 1 22 2 0 0 0 0 0 0
0 0 0 0 0 0 0 0 0 0 0 0 0 0 1 3 8 9 0 1 2 0 3 3 2 2 9 12 3 27 10 0 3 1 10 1 0 3 5 3 2 0 0 0 0
0 0 0 0 0 2 0 0 0 0 0 0 2 2 1 1 10 10 0 4 2 0 10 15 8 8 1 2 0 1 0 0 3 1 2 5 1 5 4 4 1 0 0 0 0
0 0 0 0 0 0 0 0 0 0 0 0 0 3 5 1 7 2 0 0 0 0 21 13 18 12 1 9 6 14 0 0 12 56 2 8 10 3 4 8 1 1 1 0 0
0 0 0 0 0 0 0 0 0 0 0 0 0 3 5 0 1 3 1 0 0 0 2 7 1 14 22 19 13 18 17 3 7 27 18 14 8 7 1 2 1 0 0 0 0
0 0 0 2 1 0 0 0 0 0 0 0 0 0 0 0 0 0 0 0 0 0 0 17 19 7 11 9 4 8 7 6 8 0 28 9 4 10 9 14 0 0 0 0 0
0 0 0 0 0 0 0 0 0 0 0 0 0 0 0 0 0 0 0 0 0 0 0 4 9 15 7 8 1 2 4 5 7 6 7 11 8 9 9 8 9 8 0 0 0
0 0 0 0 1 0 0 0 0 0 0 0 0 0 0 0 0 0 0 0 0 4 8 6 12 6 5 3 8 0 9 17 8 5 14 4 15 11 12 11 8 11 3 1 0
CIN
-0 -0 -0 -0 -0 -0 -0 -0 -0 -0 -1 -0 -0 -0 -0 -0 -0 -0 -0 -0 -0 -0 -0 -0 -0 -0 -0 -0 -1 -0 -0 -0 -0 -0 -0 -0 -0 -0 -0 -82 -119 -154 -112 -0 -0
-0 -0 -0 -0 -0 -0 -0 -0 -0 -0 -0 -0 -0 -0 -0 -0 -0 -0 -0 -0 -0 -1 -0 -0 -0 -0 -0 -0 -0 -0 -0 -0 -0 -0 -0 -0 -0 -0 -0 -25 -62 -145 -238 -0 -181
-0 -0 -0 -0 -0 -0 -0 -0 -0 -0 -0 -0 -0 -0 -0 -0 -0 -0 -0 -0 -0 -0 -0 -0 -0 -0 -0 -0 -0 -0 -0 -0 -0 -0 -0 -0 -0 -0 -0 -0 -34 -48 -281 -335 -345
-0 -0 -0 -0 -0 -0 -0 -0 -0 -0 -0 -0 -0 -0 -0 -0 -0 -0 -0 -0 -0 -0 -0 -0 -0 -0 -0 -0 -0 -0 -0 -0 -0 -0 -0 -0 -0 -0 -0 -0 -0 -0 -166 -251 -326
-1 -1 -0 -0 -0 -0 -0 -0 -0 -0 -0 -0 -0 -1 -0 -0 -0 -0 -0 -0 -0 -0 -0 -0 -0 -0 -0 -0 -0 -0 -0 -0 -3 -23 -3 -2 -0 -0 -0 -0 -0 -0 -158 -188 -242
-0 -0 -0 -0 -0 -0 -0 -0 -0 -0 -0 -2 -1 -5 -0 -0 -0 -0 -0 -0 -0 -0 -0 -0 -0 -0 -0 -0 -0 -0 -0 -0 -0 -10 -4 -1 -0 -0 -0 -0 -0 -0 -0 -130 -230
-0 -0 -0 -0 -0 -0 -0 -0 -0 -0 -0 -1 -2 -3 -0 -0 -0 -0 -0 -0 -0 -0 -0 -0 -0 -0 -0 -0 -0 -0 -0 -0 -0 -0 -0 -0 -0 -0 -0 -0 -0 -0 -0 -0 -147
-0 -0 -0 -0 -0 -0 -0 -0 -0 -0 -0 -1 -1 -1 -0 -0 -0 -0 -0 -0 -0 -0 -0 -0 -0 -0 -0 -0 -0 -0 -0 -0 -0 -0 -0 -0 -0 -0 -0 -0 -0 -0 -0 -0 -105
-0 -0 -0 -0 -0 -0 -0 -0 -0 -0 -0 -0 -0 -0 -0 -0 -0 -0 -0 -0 -0 -0 -0 -0 -0 -0 -0 -0 -0 -0 -0 -0 -0 -0 -0 -0 -0 -0 -0 -0 -0 -0 -0 -0 -0
-0 -0 -0 -0 -0 -0 -0 -0 -0 -0 -0 -0 -1 -0 -0 -0 -0 -0 -0 -0 -0 -0 -0 -0 -0 -0 -0 -0 -0 -0 -0 -0 -0 -0 -0 -0 -0 -0 -0 -0 -0 -0 -0 -0 -0
-0 -0 -0 -0 -0 -0 -0 -0 -0 -0 -0 -0 -0 -0 -0 -0 -0 -0 -0 -0 -0 -0 -0 -0 -0 -0 -0 -0 -0 -0 -0 -0 -0 -0 -0 -0 -0 -0 -0 -0 -0 -0 -0 -0 -0
-0 -0 -0 -0 -0 -0 -0 -0 -0 -0 -0 -0 -0 -0 -0 -0 -0 -0 -0 -0 -2 -0 -0 -0 -0 -0 -0 -0 -0 -0 -0 -0 -0 -0 -0 -0 -0 -0 -0 -0 -0 -0 -0 -0 -0
-0 -0 -0 -0 -0 -0 -0 -0 -13 -5 -0 -0 -0 -0 -0 -0 -0 -0 -0 -0 -0 -0 -0 -0 -0 -0 -0 -0 -0 -0 -0 -0 -0 -0 -0 -0 -0 -0 -0 -0 -0 -0 -0 -0 -0
-0 -0 -0 -0 -0 -0 -0 -0 -0 -0 -0 -0 -0 -2 -0 -0 -0 -0 -0 -0 -0 -0 -0 -0 -0 -0 -0 -0 -0 -0 -0 -0 -0 -0 -0 -0 -0 -0 -0 -0 -0 -0 -0 -0 -0
-0 -0 -0 -0 -0 -0 -0 -0 -0 -0 -0 -0 -0 -0 -0 -0 -0 -0 -0 -0 -0 -0 -0 -0 -0 -0 -0 -0 -0 -0 -0 -0 -0 -0 -0 -0 -0 -0 -0 -0 -0 -0 -0 -0 -0
-0 -0 -0 -0 -0 -0 -0 -0 -0 -0 -0 -0 -0 -0 -0 -0 -0 -3 -0 -0 -0 -0 -0 -0 -0 -0 -0 -0 -0 -0 -0 -0 -0 -0 -0 -0 -0 -0 -0 -0 -0 -0 -0 -0 -0
-0 -0 -0 -0 -0 -0 -0 -0 -0 -0 -0 -0 -0 -0 -0 -0 -3 -4 -2 -0 -0 -0 -0 -0 -0 -0 -0 -0 -0 -0 -0 -0 -0 -0 -0 -0 -0 -0 -0 -0 -0 -0 -0 -0 -0
-0 -0 -0 -0 -0 -0 -0 -0 -0 -0 -0 -0 -0 -0 -0 -0 -0 -2 -3 -0 -0 -0 -0 -0 -0 -0 -0 -0 -0 -0 -0 -0 -0 -0 -0 -1 -0 -0 -0 -0 -0 -0 -0 -0 -0
-0 -0 -0 -0 -0 -0 -0 -0 -0 -0 -0 -0 -0 -0 -0 -0 -0 -0 -0 -0 -0 -0 -0 -0 -0 -0 -0 -0 -0 -0 -0 -0 -0 -0 -0 -0 -0 -0 -99 -0 -0 -0 -0 -0 -0
-0 -0 -0 -0 -0 -0 -0 -0 -0 -0 -0 -0 -0 -0 -0 -0 -0 -0 -0 -0 -0 -0 -0 -0 -0 -0 -0 -0 -0 -0 -0 -0 -0 -0 -0 -0 -3 -0 -0 -0 -0 -0 -0 -0 -0
-0 -0 -0 -0 -0 -0 -0 -0 -0 -0 -0 -0 -0 -0 -0 -0 -0 -0 -0 -0 -0 -0 -0 -0 -0 -0 -0 -0 -0 -0 -0 -0 -0 -0 -0 -0 -0 -0 -0 -0 -0 -0 -0 -0 -0
-0 -0 -0 -0 -0 -0 -0 -0 -0 -0 -0 -0 -5 -0 -0 -0 -0 -0 -0 -3 -1 -0 -0 -0 -0 -0 -0 -0 -0 -0 -0 -0 -0 -0 -0 -0 -0 -0 -0 -0 -0 -0 -0 -0 -0
-0 -0 -0 -0 -0 -0 -0 -0 -0 -0 -0 -0 -0 -2 -2 -0 -0 -0 -0 -0 -0 -0 -0 -0 -0 -0 -0 -0 -0 -0 -0 -0 -0 -0 -0 -0 -0 -0 -0 -0 -0 -0 -0 -0 -0
-0 -0 -0 -0 -0 -0 -0 -0 -0 -0 -0 -0 -0 -3 -0 -1 -0 -0 -0 -0 -0 -0 -0 -0 -0 -0 -0 -0 -0 -0 -0 -0 -0 -0 -0 -0 -0 -0 -0 -0 -0 -0 -0 -0 -0
-0 -0 -0 -0 -0 -0 -0 -0 -0 -0 -0 -0 -0 -0 -0 -0 -0 -0 -0 -0 -0 -0 -0 -0 -0 -0 -0 -0 -0 -0 -0 -0 -0 -0 -0 -0 -0 -0 -0 -0 -0 -0 -0 -0 -0
-0 -0 -0 -0 -0 -0 -0 -0 -0 -0 -0 -0 -0 -0 -0 -0 -0 -0 -0 -0 -0 -0 -0 -0 -0 -0 -0 -0 -0 -0 -0 -0 -0 -0 -0 -0 -0 -0 -0 -0 -0 -0 -0 -0 -0
-0 -0 -0 -0 -0 -0 -0 -0 -0 -0 -0 -0 -0 -0 -0 -0 -0 -0 -0 -0 -0 -0 -0 -0 -0 -0 -0 -0 -0 -0 -0 -0 -0 -0 -0 -0 -0 -0 -0 -0 -0 -0 -0 -0 -0
Wind_Speed
11 11 12 13 12 10 9 8 8 9 8 9 10 11 12 12 13 3 5 7 12 10 8 10 4 4 6 7 5 2 8 13 18 13 12 2 3 1 4 4 3 5 2 1 21
11 12 12 13 12 10 9 8 7 8 9 10 11 11 12 11 5 4 3 13 11 7 3 4 4 3 7 13 7 10 13 15 6 10 12 8 8 10 5 7 6 4 3 13 22
12 12 12 13 14 12 11 8 6 7 8 9 10 11 10 10 2 3 11 13 10 3 2 4 5 3 9 8 15 12 17 13 6 10 13 13 10 4 6 8 9 10 10 17 23
12 13 14 15 15 14 12 10 7 7 7 10 10 11 9 5 2 4 13 10 6 2 2 2 1 4 6 13 13 12 15 11 14 15 11 8 6 11 8 9 6 8 12 18 21
12 12 14 14 16 14 11 9 8 7 7 8 8 9 4 4 1 5 11 14 8 2 6 3 0 1 6 3 7 13 10 8 5 4 10 10 14 15 15 13 9 3 10 17 18
12 13 14 15 15 13 10 7 7 5 5 6 6 3 3 4 0 1 10 9 10 6 4 4 3 3 0 2 5 4 7 11 9 8 8 10 17 14 13 13 9 2 8 13 18
11 12 13 13 14 14 12 8 7 5 4 6 5 2 4 6 2 3 8 4 5 3 2 2 3 2 1 2 3 3 9 11 14 15 14 8 21 23 17 18 19 15 6 9 13
9 9 10 12 12 13 12 10 7 6 4 5 4 1 4 1 5 4 2 1 2 3 3 4 2 1 3 3 2 3 6 10 10 17 9 15 26 11 12 19 22 23 16 12 14
7 8 11 12 13 13 12 11 6 4 4 3 1 2 4 3 2 3 3 3 3 3 1 3 1 0 2 3 3 4 6 9 10 10 9 18 15 8 14 18 16 17 18 16 15
5 8 10 12 15 15 10 7 4 2 1 1 1 5 1 3 2 2 2 2 2 3 3 1 2 4 4 5 4 4 5 5 10 0 13 21 20 19 15 11 14 20 20 17 17
6 8 10 13 16 11 5 2 2 2 4 3 4 4 2 4 3 2 1 2 2 1 1 3 4 8 7 10 9 3 6 10 6 7 10 16 18 18 12 13 18 19 17 16 17
6 8 10 12 13 9 2 5 4 2 7 2 6 6 6 4 5 3 3 3 2 3 4 3 8 11 9 8 10 13 14 16 16 16 14 17 23 19 22 17 18 17 20 21 18
5 7 9 12 7 4 5 5 3 1 4 3 3 3 3 2 2 4 6 1 4 5 7 7 5 2 6 7 11 13 14 13 14 11 15 17 27 25 26 23 21 22 22 21 21
4 6 8 13 1 2 3 2 1 1 2 5 3 2 1 3 4 3 6 2 3 4 5 8 7 9 12 14 11 14 7 13 13 9 7 0 12 14 13 20 22 22 23 23 22
1 4 6 7 1 2 2 2 0 2 2 3 2 2 3 3 8 2 2 3 6 5 2 3 5 7 12 13 9 7 8 9 12 14 13 19 10 7 14 19 23 18 20 23 25
1 3 3 2 1 2 1 0 2 1 2 4 4 5 8 1 2 1 2 1 2 3 9 17 8 8 16 10 12 2 7 12 9 9 9 18 16 14 17 19 22 18 21 21 22
3 3 2 1 2 1 2 0 2 1 2 5 4 8 8 3 3 1 2 3 3 5 3 5 13 10 10 8 10 12 5 4 7 8 9 7 14 20 18 19 24 22 19 23 19
5 5 3 3 2 2 1 2 1 2 4 3 4 9 5 6 1 4 4 3 2 4 4 5 8 7 9 9 6 15 15 6 7 6 8 6 11 15 19 21 21 23 20 21 15
8 2 1 4 2 1 1 3 2 5 1 4 4 3 4 3 5 5 4 4 1 1 3 6 6 0 6 7 4 4 12 6 3 5 7 10 16 12 11 4 9 8 8 10 10
3 2 2 7 4 1 2 1 2 3 2 4 3 1 4 7 7 9 3 4 3 4 4 4 10 2 1 2 6 2 3 3 4 5 9 7 7 5 12 13 11 11 10 10 6
3 3 3 3 0 2 2 3 4 6 5 2 1 3 4 5 7 5 4 2 2 8 7 4 5 1 3 6 9 5 5 7 4 6 4 5 4 2 6 10 9 9 12 11 10
3 1 3 2 1 2 2 6 3 4 3 4 3 3 3 5 4 4 4 3 5 8 9 2 5 7 5 1 5 11 7 12 5 4 5 7 8 7 8 8 8 12 8 10 12
3 3 1 1 3 3 1 2 4 5 5 5 4 6 5 2 4 5 5 3 4 8 3 5 3 7 3 3 2 5 11 11 5 3 11 4 2 5 10 11 8 7 9 12 15
4 2 1 2 1 4 4 3 4 4 3 4 3 2 3 2 4 6 7 5 9 6 9 5 3 4 6 4 6 4 6 16 12 5 4 7 3 5 8 8 10 12 15 17 17
3 3 1 5 7 5 4 7 4 4 5 4 2 7 4 3 3 5 4 9 5 4 10 5 4 2 2 6 5 12 14 14 18 17 5 6 7 8 8 7 12 13 14 16 18
6 5 1 2 4 8 5 6 8 4 7 5 6 5 6 6 7 4 5 4 4 7 9 8 3 4 3 3 8 11 16 15 9 6 6 3 10 5 5 6 11 13 15 16 16
2 3 2 5 4 5 6 7 9 7 6 2 6 3 9 13 9 10 9 11 12 11 6 5 6 3 2 6 3 4 12 9 6 11 5 7 5 6 9 13 13 11 13 14 14
Wind_Direction
15 6 346 341 344 340 339 340 342 341 357 343 341 343 339 332 324 342 48 327 324 246 326 307 265 241 221 208 175 161 229 235 232 233 231 192 274 269 331 207 204 193 305 40 145
3 356 343 336 333 329 331 334 336 338 338 340 340 345 346 338 325 71 43 352 2 55 325 319 209 218 212 212 190 202 225 242 232 257 258 256 299 294 285 225 204 197 60 138 154
354 344 338 325 317 313 310 316 320 327 328 331 335 345 337 323 256 92 353 336 348 30 5 318 296 249 222 218 206 206 233 226 233 251 260 263 273 286 282 257 253 232 161 162 165
346 341 348 339 328 319 318 304 293 300 313 320 334 349 330 305 300 15 342 341 5 56 351 341 278 204 223 212 222 241 228 252 244 245 265 256 298 263 267 269 15 355 174 172 182
335 359 347 339 335 327 322 302 297 287 305 331 340 360 341 322 5 8 31 14 34 35 32 21 88 219 207 254 252 239 246 248 231 284 275 273 265 268 268 274 304 338 173 192 203
3 353 351 345 349 353 352 344 328 325 328 330 352 27 357 313 81 249 359 353 20 26 36 19 32 355 266 291 273 353 295 272 274 272 269 275 266 260 259 256 277 276 239 211 206
1 352 351 348 354 357 3 8 357 354 349 341 12 69 282 288 314 270 321 339 319 324 354 11 337 298 252 239 338 266 278 264 247 239 248 263 256 241 246 255 263 262 255 232 222
358 351 351 350 350 353 347 349 342 347 355 355 38 99 273 285 308 318 329 30 10 317 282 349 305 24 299 324 281 251 234 245 230 221 233 223 256 242 240 247 249 253 250 235 219
357 358 353 351 342 338 331 331 295 333 343 346 290 294 314 303 4 19 14 81 85 46 64 339 312 1 191 223 246 222 261 240 274 234 250 223 266 240 254 253 261 260 251 249 240
359 357 350 349 340 333 342 24 76 64 69 128 254 261 278 28 346 21 64 109 68 109 121 14 15 243 224 207 262 245 233 241 253 84 243 249 255 260 263 256 263 258 256 243 243
359 351 346 349 348 353 350 232 4 103 28 332 317 289 301 333 264 223 217 169 160 171 250 84 254 241 267 243 270 311 296 284 287 309 299 262 266 260 238 262 248 253 259 256 252
359 350 341 347 344 350 358 65 73 337 320 305 294 267 282 284 288 277 191 240 223 267 149 173 249 280 240 249 251 260 263 264 272 258 269 281 272 259 257 254 258 255 257 259 256
355 347 346 340 347 34 51 67 69 136 284 308 310 313 350 185 270 288 186 198 256 253 222 228 258 353 193 229 236 245 257 258 259 296 272 281 278 264 253 254 247 253 258 252 248
1 352 354 338 107 336 57 80 325 297 302 347 351 70 237 251 260 246 210 248 215 286 266 259 269 262 240 255 253 275 238 254 267 265 260 78 282 279 248 245 242 242 247 250 243
14 22 24 31 109 55 55 307 289 212 287 6 305 345 283 268 315 161 176 162 246 230 220 301 237 223 229 233 205 257 262 258 266 257 267 252 261 267 239 247 248 240 237 245 242
103 51 53 83 49 64 26 11 206 274 326 337 307 347 332 196 263 304 193 227 289 261 228 258 259 257 244 254 232 217 231 256 263 248 235 241 221 273 245 243 264 249 236 239 244
132 96 74 157 89 65 2 270 16 60 11 341 335 334 315 276 293 221 274 233 265 290 236 253 251 236 237 253 236 214 181 216 219 209 251 258 225 240 276 243 246 263 250 238 241
103 77 31 55 7 22 220 86 83 97 266 327 309 319 310 332 282 312 286 284 242 239 289 318 310 175 161 216 233 203 202 212 245 244 287 235 239 240 247 262 264 269 273 256 266
114 50 69 23 7 76 241 78 204 193 187 327 343 340 316 312 322 338 286 291 217 150 310 298 254 356 220 221 201 141 210 211 289 217 258 252 261 275 351 204 315 326 308 276 266
97 89 31 344 345 58 64 116 177 206 224 250 58 322 311 328 322 345 299 75 19 349 126 288 288 194 112 106 166 241 115 171 164 273 271 255 323 308 342 323 330 338 359 331 332
89 145 118 350 230 5 162 184 235 223 219 223 153 280 285 329 323 301 297 340 265 337 331 252 231 244 176 207 183 170 198 222 248 228 280 295 265 240 322 322 351 355 16 353 9
118 64 7 307 112 304 176 167 204 223 190 243 251 266 267 322 274 294 274 277 335 340 320 287 296 285 291 294 298 226 224 206 214 234 252 304 284 354 16 22 17 28 13 22 38
114 109 63 284 224 211 287 168 249 204 216 204 224 207 199 248 302 249 298 326 358 332 315 2 265 299 244 174 175 220 228 231 228 254 230 249 298 360 26 12 32 44 48 43 41
118 136 66 63 255 157 166 195 233 211 248 219 265 255 258 272 233 284 291 301 331 276 312 293 249 289 312 344 321 311 328 240 208 250 303 252 110 13 11 13 8 29 37 39 38
98 242 140 174 227 177 180 167 184 204 223 217 228 230 216 277 297 248 268 311 305 356 333 347 280 268 229 80 57 36 17 6 213 220 294 38 79 17 350 6 22 30 36 38 30
147 148 201 127 161 138 181 209 202 187 179 212 216 203 214 235 217 278 305 329 291 326 338 338 297 304 240 173 61 41 15 21 31 8 74 48 70 347 352 22 24 24 29 29 23
153 87 210 162 163 156 203 187 199 181 205 230 199 209 243 253 260 264 262 269 269 296 304 307 311 313 278 351 234 5 357 359 17 21 346 46 35 348 18 29 22 7 29 25 11